Flag for Uganda Weather past 2 weeks in Entebbe, Uganda

Now
72 °F

Passing clouds.


Feels Like: 69 °F
Forecast: 64 / 73 °F
Wind: 6 mph from North

Location: Entebbe Airport

Current Time: Jul 2, 2015 at 12:13:52 AM

Latest Report: Jul 1, 2015 at 11:00 PM


Visibility: N/A

Pressure: 30.12 "Hg

Humidity: 88%

Dew point: 68 °F

Location of EntebbeLocation

Historic Weather in Entebbe — Graph

°F

Entebbe temperature yesterday

Maximum temperature yesterday: 77 °F (at 12:00 PM)
Minimum temperature yesterday: 66 °F (at 7:00 AM)
Average temperature yesterday: 73 °F

Past Weeks' High & Low Weather Summary

 TemperatureHumidityPressure
High81 °F (Jun 17, 12:00 PM)100% (Jun 17, 6:00 AM)30.21 "Hg (Jun 17, 6:00 AM)
Low64 °F (Jun 20, 11:00 AM)58% (Jun 17, 4:00 PM)29.83 "Hg (Jun 19, 10:00 PM)
Average73 °F81%30.10 "Hg
* Reported Jun 17 6:00 AM — Jul 1 11:00 PM, Entebbe, Weather by CustomWeather, © 2015

Note: Actual official high and low records may vary slightly from our data, if they occured in-between our weather recording intervals... More about our weather records

Advertising

Entebbe weather history for previous 24 hours

 ConditionsComfort  
Time TempWeatherWind HumidityBarometerVisibility
11:00 PM
Wed, Jul 1
72 °FPassing clouds.6 mph88%30.12 "HgN/A
10:00 PM72 °FPassing clouds.3 mph88%30.09 "HgN/A
9:00 PM73 °FPassing clouds.3 mph78%30.09 "HgN/A
6:00 PM77 °FScattered clouds.9 mph74%30.04 "HgN/A
5:00 PM77 °FWarm.7 mph74%30.09 "HgN/A
4:00 PM77 °FScattered clouds.8 mph74%30.07 "HgN/A
3:00 PM77 °FScattered clouds.8 mph79%30.07 "HgN/A
2:00 PM77 °FScattered clouds.7 mph74%30.07 "HgN/A
1:00 PM77 °FScattered clouds.9 mph74%30.09 "HgN/A
12:00 PM77 °FBroken clouds.2 mph69%30.12 "HgN/A
11:00 AM72 °FLight rain. Broken clouds.8 mph83%30.12 "HgN/A
10:00 AM68 °FBroken clouds.6 mph88%30.12 "HgN/A
9:00 AM66 °FLight rain. More clouds than sun.7 mph94%30.12 "HgN/A
7:00 AM66 °FStrong thunderstorms. Cloudy.17 mph100%30.07 "Hg2 mi
6:00 AM70 °FThunderstorms. Overcast.6 mph94%30.04 "Hg6 mi
5:00 AM70 °FMild.9 mph94%30.04 "HgN/A
4:00 AM70 °FPassing clouds.12 mph83%30.04 "HgN/A
Weather by CustomWeather, © 2015

See weather overviewHow to use our weather pages